Date_Time,Julian_Date,Latitude,Longitude,Instrument_Depth,U,V,Speed,Direction
(yyyy-mm-dd hh:mn:ss UTC),(JD),(+ deg. North),(+ deg. East),(m),(cm/s),(cm/s),(cm/s),(deg True)
1978-02-27 00:09:00 UTC,2443566.506250,29.1900,-87.6367,0095,-2.22,-0.01,2.2200,269.7419
1978-02-27 01:09:00 UTC,2443566.547917,29.1900,-87.6367,0095,-2.07,0.26,2.0863,277.1591
1978-02-27 02:09:00 UTC,2443566.589583,29.1900,-87.6367,0095,-1.95,0.08,1.9516,272.3493
1978-02-27 03:09:00 UTC,2443566.631250,29.1900,-87.6367,0095,-1.87,-0.04,1.8704,268.7746
1978-02-27 04:09:00 UTC,2443566.672917,29.1900,-87.6367,0095,-1.72,0.27,1.7411,278.9213
1978-02-27 05:09:00 UTC,2443566.714583,29.1900,-87.6367,0095,-1.71,0.39,1.7539,282.8477
1978-02-27 06:09:00 UTC,2443566.756250,29.1900,-87.6367,0095,-1.72,0.25,1.7381,278.2700
1978-02-27 07:09:00 UTC,2443566.797917,29.1900,-87.6367,0095,-1.54,0.29,1.5671,280.6646
1978-02-27 08:09:00 UTC,2443566.839583,29.1900,-87.6367,0095,-1.33,0.36,1.3779,285.1457
1978-02-27 09:09:00 UTC,2443566.881250,29.1900,-87.6367,0095,-1.19,0.33,1.2349,285.4993
1978-02-27 10:09:00 UTC,2443566.922917,29.1900,-87.6367,0095,-1.08,0.27,1.1132,284.0363
1978-02-27 11:09:00 UTC,2443566.964583,29.1900,-87.6367,0095,-0.87,0.29,0.9171,288.4349
1978-02-27 12:09:00 UTC,2443567.006250,29.1900,-87.6367,0095,-0.62,0.26,0.6723,292.7510
1978-02-27 13:09:00 UTC,2443567.047917,29.1900,-87.6367,0095,-0.54,0.15,0.5604,285.5241
1978-02-27 14:09:00 UTC,2443567.089583,29.1900,-87.6367,0095,-0.51,0.09,0.5179,280.0080
1978-02-27 15:09:00 UTC,2443567.131250,29.1900,-87.6367,0095,-0.45,-0.00,0.4500,270.0000
1978-02-27 16:09:00 UTC,2443567.172917,29.1900,-87.6367,0095,-0.33,-0.11,0.3479,251.5651
1978-02-27 17:09:00 UTC,2443567.214583,29.1900,-87.6367,0095,-0.24,-0.18,0.3000,233.1301
1978-02-27 18:09:00 UTC,2443567.256250,29.1900,-87.6367,0095,-0.26,-0.20,0.3280,232.4314
1978-02-27 19:09:00 UTC,2443567.297917,29.1900,-87.6367,0095,-0.23,-0.16,0.2802,235.1755
1978-02-27 20:09:00 UTC,2443567.339583,29.1900,-87.6367,0095,-0.15,-0.24,0.2830,212.0054
1978-02-27 21:09:00 UTC,2443567.381250,29.1900,-87.6367,0095,-0.18,-0.28,0.3329,212.7352
1978-02-27 22:09:00 UTC,2443567.422917,29.1900,-87.6367,0095,-0.25,-0.30,0.3905,219.8056
1978-02-27 23:09:00 UTC,2443567.464583,29.1900,-87.6367,0095,-0.18,-0.25,0.3081,215.7539
1978-02-28 00:09:00 UTC,2443567.506250,29.1900,-87.6367,0095,-0.16,-0.31,0.3489,207.2996
1978-02-28 01:09:00 UTC,2443567.547917,29.1900,-87.6367,0095,-0.17,-0.44,0.4717,201.1247
1978-02-28 02:09:00 UTC,2443567.589583,29.1900,-87.6367,0095,-0.14,-0.50,0.5192,195.6423
1978-02-28 03:09:00 UTC,2443567.631250,29.1900,-87.6367,0095,-0.10,-0.37,0.3833,195.1240
1978-02-28 04:09:00 UTC,2443567.672917,29.1900,-87.6367,0095,0.01,-0.20,0.2002,177.1376
1978-02-28 05:09:00 UTC,2443567.714583,29.1900,-87.6367,0095,0.09,-0.12,0.1500,143.1301
1978-02-28 06:09:00 UTC,2443567.756250,29.1900,-87.6367,0095,0.16,-0.03,0.1628,100.6197
1978-02-28 07:09:00 UTC,2443567.797917,29.1900,-87.6367,0095,0.10,-0.11,0.1487,137.7263
1978-02-28 08:09:00 UTC,2443567.839583,29.1900,-87.6367,0095,-0.01,-0.21,0.2102,182.7263
1978-02-28 09:09:00 UTC,2443567.881250,29.1900,-87.6367,0095,0.01,-0.18,0.1803,176.8202
1978-02-28 10:09:00 UTC,2443567.922917,29.1900,-87.6367,0095,-0.01,-0.15,0.1503,183.8141
1978-02-28 11:09:00 UTC,2443567.964583,29.1900,-87.6367,0095,-0.03,-0.16,0.1628,190.6197
1978-02-28 12:09:00 UTC,2443568.006250,29.1900,-87.6367,0095,0.10,-0.07,0.1221,124.9920
1978-02-28 13:09:00 UTC,2443568.047917,29.1900,-87.6367,0095,0.16,0.05,0.1676,72.6460
1978-02-28 14:09:00 UTC,2443568.089583,29.1900,-87.6367,0095,0.14,0.03,0.1432,77.9052
1978-02-28 15:09:00 UTC,2443568.131250,29.1900,-87.6367,0095,0.16,-0.02,0.1612,97.1250
1978-02-28 16:09:00 UTC,2443568.172917,29.1900,-87.6367,0095,0.22,0.08,0.2341,70.0169
1978-02-28 17:09:00 UTC,2443568.214583,29.1900,-87.6367,0095,0.30,0.13,0.3270,66.5713
1978-02-28 18:09:00 UTC,2443568.256250,29.1900,-87.6367,0095,0.26,0.05,0.2648,79.1145
1978-02-28 19:09:00 UTC,2443568.297917,29.1900,-87.6367,0095,0.17,0.02,0.1712,83.2902
1978-02-28 20:09:00 UTC,2443568.339583,29.1900,-87.6367,0095,0.12,-0.08,0.1442,123.6901
1978-02-28 21:09:00 UTC,2443568.381250,29.1900,-87.6367,0095,0.05,-0.11,0.1208,155.5560
1978-02-28 22:09:00 UTC,2443568.422917,29.1900,-87.6367,0095,0.12,-0.18,0.2163,146.3099
1978-02-28 23:09:00 UTC,2443568.464583,29.1900,-87.6367,0095,0.20,-0.26,0.3280,142.4314
1978-03-01 00:09:00 UTC,2443568.506250,29.1900,-87.6367,0095,0.19,-0.24,0.3061,141.6325
1978-03-01 01:09:00 UTC,2443568.547917,29.1900,-87.6367,0095,0.24,-0.23,0.3324,133.7811
1978-03-01 02:09:00 UTC,2443568.589583,29.1900,-87.6367,0095,0.29,-0.23,0.3701,128.4181
1978-03-01 03:09:00 UTC,2443568.631250,29.1900,-87.6367,0095,0.37,-0.17,0.4072,114.6769
1978-03-01 04:09:00 UTC,2443568.672917,29.1900,-87.6367,0095,0.41,-0.11,0.4245,105.0184
1978-03-01 05:09:00 UTC,2443568.714583,29.1900,-87.6367,0095,0.40,-0.13,0.4206,108.0042
1978-03-01 06:09:00 UTC,2443568.756250,29.1900,-87.6367,0095,0.39,-0.10,0.4026,104.3814
1978-03-01 07:09:00 UTC,2443568.797917,29.1900,-87.6367,0095,0.41,0.02,0.4105,87.2073
1978-03-01 08:09:00 UTC,2443568.839583,29.1900,-87.6367,0095,0.38,0.05,0.3833,82.5041
1978-03-01 09:09:00 UTC,2443568.881250,29.1900,-87.6367,0095,0.26,-0.15,0.3002,119.9816
1978-03-01 10:09:00 UTC,2443568.922917,29.1900,-87.6367,0095,0.12,-0.52,0.5337,167.0054
1978-03-01 11:09:00 UTC,2443568.964583,29.1900,-87.6367,0095,0.05,-0.97,0.9713,177.0492
1978-03-01 12:09:00 UTC,2443569.006250,29.1900,-87.6367,0095,0.56,-0.86,1.0263,146.9293
1978-03-01 13:09:00 UTC,2443569.047917,29.1900,-87.6367,0095,0.78,-0.04,0.7810,92.9357
1978-03-01 14:09:00 UTC,2443569.089583,29.1900,-87.6367,0095,0.36,0.20,0.4118,60.9454
1978-03-01 15:09:00 UTC,2443569.131250,29.1900,-87.6367,0095,0.25,0.08,0.2625,72.2553
1978-03-01 16:09:00 UTC,2443569.172917,29.1900,-87.6367,0095,0.33,0.21,0.3912,57.5288
1978-03-01 17:09:00 UTC,2443569.214583,29.1900,-87.6367,0095,0.25,0.10,0.2693,68.1986
1978-03-01 18:09:00 UTC,2443569.256250,29.1900,-87.6367,0095,0.13,-0.06,0.1432,114.7751
1978-03-01 19:09:00 UTC,2443569.297917,29.1900,-87.6367,0095,0.24,0.08,0.2530,71.5650
1978-03-01 20:09:00 UTC,2443569.339583,29.1900,-87.6367,0095,0.24,0.08,0.2530,71.5650
1978-03-01 21:09:00 UTC,2443569.381250,29.1900,-87.6367,0095,0.14,0.13,0.1910,47.1211
1978-03-01 22:09:00 UTC,2443569.422917,29.1900,-87.6367,0095,0.11,0.11,0.1556,45.0000
1978-03-01 23:09:00 UTC,2443569.464583,29.1900,-87.6367,0095,0.20,-0.05,0.2062,104.0362
1978-03-02 00:09:00 UTC,2443569.506250,29.1900,-87.6367,0095,0.03,-0.10,0.1044,163.3008
1978-03-02 01:09:00 UTC,2443569.547917,29.1900,-87.6367,0095,-0.19,-0.04,0.1942,258.1114
1978-03-02 02:09:00 UTC,2443569.589583,29.1900,-87.6367,0095,0.06,0.12,0.1342,26.5651
1978-03-02 03:09:00 UTC,2443569.631250,29.1900,-87.6367,0095,0.41,0.20,0.4562,63.9967
1978-03-02 04:09:00 UTC,2443569.672917,29.1900,-87.6367,0095,0.48,0.18,0.5126,69.4439
1978-03-02 05:09:00 UTC,2443569.714583,29.1900,-87.6367,0095,0.45,0.17,0.4810,69.3045
1978-03-02 06:09:00 UTC,2443569.756250,29.1900,-87.6367,0095,0.42,0.17,0.4531,67.9638
1978-03-02 07:09:00 UTC,2443569.797917,29.1900,-87.6367,0095,0.50,0.25,0.5590,63.4349
1978-03-02 08:09:00 UTC,2443569.839583,29.1900,-87.6367,0095,0.68,0.34,0.7603,63.4349
1978-03-02 09:09:00 UTC,2443569.881250,29.1900,-87.6367,0095,0.76,0.18,0.7810,76.6755
1978-03-02 10:09:00 UTC,2443569.922917,29.1900,-87.6367,0095,0.75,-0.02,0.7503,91.5275
1978-03-02 11:09:00 UTC,2443569.964583,29.1900,-87.6367,0095,0.62,-0.09,0.6265,98.2594
1978-03-02 12:09:00 UTC,2443570.006250,29.1900,-87.6367,0095,0.48,-0.22,0.5280,114.6236
1978-03-02 13:09:00 UTC,2443570.047917,29.1900,-87.6367,0095,0.41,-0.44,0.6014,137.0214
1978-03-02 14:09:00 UTC,2443570.089583,29.1900,-87.6367,0095,0.42,-0.51,0.6607,140.5275
1978-03-02 15:09:00 UTC,2443570.131250,29.1900,-87.6367,0095,0.40,-0.45,0.6021,138.3665
1978-03-02 16:09:00 UTC,2443570.172917,29.1900,-87.6367,0095,0.37,-0.44,0.5749,139.9392
1978-03-02 17:09:00 UTC,2443570.214583,29.1900,-87.6367,0095,0.31,-0.46,0.5547,146.0235
1978-03-02 18:09:00 UTC,2443570.256250,29.1900,-87.6367,0095,0.13,-0.43,0.4492,163.1786
1978-03-02 19:09:00 UTC,2443570.297917,29.1900,-87.6367,0095,-0.05,-0.43,0.4329,186.6325
1978-03-02 20:09:00 UTC,2443570.339583,29.1900,-87.6367,0095,-0.29,-0.49,0.5694,210.6186
1978-03-02 21:09:00 UTC,2443570.381250,29.1900,-87.6367,0095,-0.29,-0.38,0.4780,217.3494
1978-03-02 22:09:00 UTC,2443570.422917,29.1900,-87.6367,0095,-0.06,-0.20,0.2088,196.6992
1978-03-02 23:09:00 UTC,2443570.464583,29.1900,-87.6367,0095,0.09,-0.24,0.2563,159.4439
1978-03-03 00:09:00 UTC,2443570.506250,29.1900,-87.6367,0095,0.27,-0.21,0.3421,127.8750
1978-03-03 01:09:00 UTC,2443570.547917,29.1900,-87.6367,0095,0.53,-0.11,0.5413,101.7251
1978-03-03 02:09:00 UTC,2443570.589583,29.1900,-87.6367,0095,0.60,-0.32,0.6800,118.0725
1978-03-03 03:09:00 UTC,2443570.631250,29.1900,-87.6367,0095,0.56,-0.34,0.6551,121.2637
1978-03-03 04:09:00 UTC,2443570.672917,29.1900,-87.6367,0095,0.42,-0.17,0.4531,112.0362
1978-03-03 05:09:00 UTC,2443570.714583,29.1900,-87.6367,0095,0.19,-0.10,0.2147,117.7585
1978-03-03 06:09:00 UTC,2443570.756250,29.1900,-87.6367,0095,0.13,0.00,0.1300,90.0000
1978-03-03 07:09:00 UTC,2443570.797917,29.1900,-87.6367,0095,0.20,0.07,0.2119,70.7099
1978-03-03 08:09:00 UTC,2443570.839583,29.1900,-87.6367,0095,0.25,0.15,0.2915,59.0362
1978-03-03 09:09:00 UTC,2443570.881250,29.1900,-87.6367,0095,0.23,0.19,0.2983,50.4403
1978-03-03 10:09:00 UTC,2443570.922917,29.1900,-87.6367,0095,0.23,0.12,0.2594,62.4472
1978-03-03 11:09:00 UTC,2443570.964583,29.1900,-87.6367,0095,0.48,-0.01,0.4801,91.1935
1978-03-03 12:09:00 UTC,2443571.006250,29.1900,-87.6367,0095,0.67,-0.14,0.6845,101.8024
1978-03-03 13:09:00 UTC,2443571.047917,29.1900,-87.6367,0095,0.81,-0.28,0.8570,109.0692
1978-03-03 14:09:00 UTC,2443571.089583,29.1900,-87.6367,0095,0.88,-0.38,0.9585,113.3556
1978-03-03 15:09:00 UTC,2443571.131250,29.1900,-87.6367,0095,0.79,-0.45,0.9092,119.6667
1978-03-03 16:09:00 UTC,2443571.172917,29.1900,-87.6367,0095,0.82,-0.53,0.9764,122.8763
1978-03-03 17:09:00 UTC,2443571.214583,29.1900,-87.6367,0095,0.94,-0.60,1.1152,122.5500
1978-03-03 18:09:00 UTC,2443571.256250,29.1900,-87.6367,0095,0.90,-0.59,1.0762,123.2471
1978-03-03 19:09:00 UTC,2443571.297917,29.1900,-87.6367,0095,0.81,-0.55,0.9791,124.1770
1978-03-03 20:09:00 UTC,2443571.339583,29.1900,-87.6367,0095,0.75,-0.61,0.9667,129.1226
1978-03-03 21:09:00 UTC,2443571.381250,29.1900,-87.6367,0095,0.71,-0.71,1.0041,135.0000
1978-03-03 22:09:00 UTC,2443571.422917,29.1900,-87.6367,0095,0.68,-0.72,0.9904,136.6366
1978-03-03 23:09:00 UTC,2443571.464583,29.1900,-87.6367,0095,0.48,-0.71,0.8570,145.9391
1978-03-04 00:09:00 UTC,2443571.506250,29.1900,-87.6367,0095,0.31,-0.67,0.7382,155.1707
1978-03-04 01:09:00 UTC,2443571.547917,29.1900,-87.6367,0095,0.34,-0.55,0.6466,148.2764
1978-03-04 02:09:00 UTC,2443571.589583,29.1900,-87.6367,0095,0.31,-0.45,0.5464,145.4375
1978-03-04 03:09:00 UTC,2443571.631250,29.1900,-87.6367,0095,0.24,-0.34,0.4162,144.7824
1978-03-04 04:09:00 UTC,2443571.672917,29.1900,-87.6367,0095,0.15,-0.20,0.2500,143.1301
1978-03-04 05:09:00 UTC,2443571.714583,29.1900,-87.6367,0095,0.10,-0.12,0.1562,140.1944
1978-03-04 06:09:00 UTC,2443571.756250,29.1900,-87.6367,0095,0.05,-0.20,0.2062,165.9637
1978-03-04 07:09:00 UTC,2443571.797917,29.1900,-87.6367,0095,0.09,-0.14,0.1664,147.2648
1978-03-04 08:09:00 UTC,2443571.839583,29.1900,-87.6367,0095,0.21,0.13,0.2470,58.2405
1978-03-04 09:09:00 UTC,2443571.881250,29.1900,-87.6367,0095,0.23,0.08,0.2435,70.8210
1978-03-04 10:09:00 UTC,2443571.922917,29.1900,-87.6367,0095,0.14,0.05,0.1487,70.3462
1978-03-04 11:09:00 UTC,2443571.964583,29.1900,-87.6367,0095,0.33,0.32,0.4597,45.8814
1978-03-04 12:09:00 UTC,2443572.006250,29.1900,-87.6367,0095,0.65,0.51,0.8262,51.8817
1978-03-04 13:09:00 UTC,2443572.047917,29.1900,-87.6367,0095,0.58,0.50,0.7658,49.2364
1978-03-04 14:09:00 UTC,2443572.089583,29.1900,-87.6367,0095,0.54,0.65,0.8450,39.7188
1978-03-04 15:09:00 UTC,2443572.131250,29.1900,-87.6367,0095,0.99,1.07,1.4577,42.7760
1978-03-04 16:09:00 UTC,2443572.172917,29.1900,-87.6367,0095,1.26,1.19,1.7331,46.6366
1978-03-04 17:09:00 UTC,2443572.214583,29.1900,-87.6367,0095,1.19,1.03,1.5738,49.1223
1978-03-04 18:09:00 UTC,2443572.256250,29.1900,-87.6367,0095,1.24,0.93,1.5500,53.1301
1978-03-04 19:09:00 UTC,2443572.297917,29.1900,-87.6367,0095,1.37,0.99,1.6903,54.1471
1978-03-04 20:09:00 UTC,2443572.339583,29.1900,-87.6367,0095,1.46,0.93,1.7310,57.5034
1978-03-04 21:09:00 UTC,2443572.381250,29.1900,-87.6367,0095,1.45,0.85,1.6808,59.6209
1978-03-04 22:09:00 UTC,2443572.422917,29.1900,-87.6367,0095,1.49,0.88,1.7305,59.4337
1978-03-04 23:09:00 UTC,2443572.464583,29.1900,-87.6367,0095,1.62,0.91,1.8581,60.6758
1978-03-05 00:09:00 UTC,2443572.506250,29.1900,-87.6367,0095,1.72,1.01,1.9946,59.5781
1978-03-05 01:09:00 UTC,2443572.547917,29.1900,-87.6367,0095,1.64,1.22,2.0440,53.3543
1978-03-05 02:09:00 UTC,2443572.589583,29.1900,-87.6367,0095,1.66,1.39,2.1651,50.0589
1978-03-05 03:09:00 UTC,2443572.631250,29.1900,-87.6367,0095,1.75,1.65,2.4052,46.6847
1978-03-05 04:09:00 UTC,2443572.672917,29.1900,-87.6367,0095,1.84,1.64,2.4648,48.2892
1978-03-05 05:09:00 UTC,2443572.714583,29.1900,-87.6367,0095,1.88,1.31,2.2914,55.1309
1978-03-05 06:09:00 UTC,2443572.756250,29.1900,-87.6367,0095,1.80,1.35,2.2500,53.1301
1978-03-05 07:09:00 UTC,2443572.797917,29.1900,-87.6367,0095,2.05,1.30,2.4274,57.6193
1978-03-05 08:09:00 UTC,2443572.839583,29.1900,-87.6367,0095,2.56,0.68,2.6488,75.1243
1978-03-05 09:09:00 UTC,2443572.881250,29.1900,-87.6367,0095,2.87,0.37,2.8938,82.6540
1978-03-05 10:09:00 UTC,2443572.922917,29.1900,-87.6367,0095,2.64,0.34,2.6618,82.6614
1978-03-05 11:09:00 UTC,2443572.964583,29.1900,-87.6367,0095,2.67,0.32,2.6891,83.1657
1978-03-05 12:09:00 UTC,2443573.006250,29.1900,-87.6367,0095,2.89,0.65,2.9622,77.3243
1978-03-05 13:09:00 UTC,2443573.047917,29.1900,-87.6367,0095,2.58,0.62,2.6535,76.4875
1978-03-05 14:09:00 UTC,2443573.089583,29.1900,-87.6367,0095,2.41,0.40,2.4430,80.5762
1978-03-05 15:09:00 UTC,2443573.131250,29.1900,-87.6367,0095,2.35,0.48,2.3985,78.4558
1978-03-05 16:09:00 UTC,2443573.172917,29.1900,-87.6367,0095,2.30,0.79,2.4319,71.0435
1978-03-05 17:09:00 UTC,2443573.214583,29.1900,-87.6367,0095,2.32,0.80,2.4541,70.9744
1978-03-05 18:09:00 UTC,2443573.256250,29.1900,-87.6367,0095,2.20,0.79,2.3375,70.2472
1978-03-05 19:09:00 UTC,2443573.297917,29.1900,-87.6367,0095,2.16,0.93,2.3517,66.7054
1978-03-05 20:09:00 UTC,2443573.339583,29.1900,-87.6367,0095,2.34,0.87,2.4965,69.6051
1978-03-05 21:09:00 UTC,2443573.381250,29.1900,-87.6367,0095,2.25,1.01,2.4663,65.8252
1978-03-05 22:09:00 UTC,2443573.422917,29.1900,-87.6367,0095,2.12,1.22,2.4460,60.0808
1978-03-05 23:09:00 UTC,2443573.464583,29.1900,-87.6367,0095,2.04,1.21,2.3719,59.3262
1978-03-06 00:09:00 UTC,2443573.506250,29.1900,-87.6367,0095,1.94,0.97,2.1690,63.4349
1978-03-06 01:09:00 UTC,2443573.547917,29.1900,-87.6367,0095,1.91,0.76,2.0557,68.3021
1978-03-06 02:09:00 UTC,2443573.589583,29.1900,-87.6367,0095,1.96,0.78,2.1095,68.2995
1978-03-06 03:09:00 UTC,2443573.631250,29.1900,-87.6367,0095,1.97,0.81,2.1300,67.6491
1978-03-06 04:09:00 UTC,2443573.672917,29.1900,-87.6367,0095,2.13,0.86,2.2971,68.0133
1978-03-06 05:09:00 UTC,2443573.714583,29.1900,-87.6367,0095,2.33,0.92,2.5051,68.4534
1978-03-06 06:09:00 UTC,2443573.756250,29.1900,-87.6367,0095,2.33,0.95,2.5162,67.8180
1978-03-06 07:09:00 UTC,2443573.797917,29.1900,-87.6367,0095,2.45,0.94,2.6241,69.0095
1978-03-06 08:09:00 UTC,2443573.839583,29.1900,-87.6367,0095,2.49,0.85,2.6311,71.1519
1978-03-06 09:09:00 UTC,2443573.881250,29.1900,-87.6367,0095,2.48,0.62,2.5563,75.9638
1978-03-06 10:09:00 UTC,2443573.922917,29.1900,-87.6367,0095,2.52,0.30,2.5378,83.2110
1978-03-06 11:09:00 UTC,2443573.964583,29.1900,-87.6367,0095,2.21,-0.06,2.2108,91.5552
1978-03-06 12:09:00 UTC,2443574.006250,29.1900,-87.6367,0095,1.81,-0.25,1.8272,97.8640
1978-03-06 13:09:00 UTC,2443574.047917,29.1900,-87.6367,0095,1.76,-0.32,1.7889,100.3048
1978-03-06 14:09:00 UTC,2443574.089583,29.1900,-87.6367,0095,1.76,-0.31,1.7871,99.9894
1978-03-06 15:09:00 UTC,2443574.131250,29.1900,-87.6367,0095,1.56,-0.18,1.5704,96.5819
1978-03-06 16:09:00 UTC,2443574.172917,29.1900,-87.6367,0095,1.28,-0.02,1.2802,90.8952
1978-03-06 17:09:00 UTC,2443574.214583,29.1900,-87.6367,0095,1.20,0.05,1.2010,87.6141
1978-03-06 18:09:00 UTC,2443574.256250,29.1900,-87.6367,0095,1.26,0.11,1.2648,85.0106
1978-03-06 19:09:00 UTC,2443574.297917,29.1900,-87.6367,0095,1.34,0.31,1.3754,76.9742
1978-03-06 20:09:00 UTC,2443574.339583,29.1900,-87.6367,0095,1.29,0.48,1.3764,69.5901
1978-03-06 21:09:00 UTC,2443574.381250,29.1900,-87.6367,0095,1.21,0.53,1.3210,66.3458
1978-03-06 22:09:00 UTC,2443574.422917,29.1900,-87.6367,0095,1.27,0.47,1.3542,69.6916
1978-03-06 23:09:00 UTC,2443574.464583,29.1900,-87.6367,0095,1.22,0.47,1.3074,68.9310
1978-03-07 00:09:00 UTC,2443574.506250,29.1900,-87.6367,0095,1.04,0.56,1.1812,61.6992
1978-03-07 01:09:00 UTC,2443574.547917,29.1900,-87.6367,0095,0.95,0.58,1.1131,58.5948
1978-03-07 02:09:00 UTC,2443574.589583,29.1900,-87.6367,0095,1.04,0.44,1.1292,67.0679
1978-03-07 03:09:00 UTC,2443574.631250,29.1900,-87.6367,0095,1.17,0.31,1.2104,75.1600
1978-03-07 04:09:00 UTC,2443574.672917,29.1900,-87.6367,0095,1.19,0.26,1.2181,77.6753
1978-03-07 05:09:00 UTC,2443574.714583,29.1900,-87.6367,0095,1.10,0.35,1.1543,72.3499
1978-03-07 06:09:00 UTC,2443574.756250,29.1900,-87.6367,0095,1.16,0.49,1.2592,67.1001
1978-03-07 07:09:00 UTC,2443574.797917,29.1900,-87.6367,0095,1.27,0.54,1.3800,66.9650
1978-03-07 08:09:00 UTC,2443574.839583,29.1900,-87.6367,0095,1.41,0.78,1.6114,61.0490
1978-03-07 09:09:00 UTC,2443574.881250,29.1900,-87.6367,0095,1.47,0.96,1.7557,56.8530
1978-03-07 10:09:00 UTC,2443574.922917,29.1900,-87.6367,0095,1.28,0.86,1.5421,56.1038
1978-03-07 11:09:00 UTC,2443574.964583,29.1900,-87.6367,0095,1.10,0.89,1.4150,51.0240
1978-03-07 12:09:00 UTC,2443575.006250,29.1900,-87.6367,0095,1.06,0.91,1.3970,49.3542
1978-03-07 13:09:00 UTC,2443575.047917,29.1900,-87.6367,0095,1.06,0.79,1.3220,53.3035
1978-03-07 14:09:00 UTC,2443575.089583,29.1900,-87.6367,0095,0.99,0.78,1.2604,51.7662
1978-03-07 15:09:00 UTC,2443575.131250,29.1900,-87.6367,0095,0.89,0.75,1.1639,49.8793
1978-03-07 16:09:00 UTC,2443575.172917,29.1900,-87.6367,0095,0.84,0.77,1.1395,47.4896
1978-03-07 17:09:00 UTC,2443575.214583,29.1900,-87.6367,0095,0.76,0.93,1.2010,39.2558
1978-03-07 18:09:00 UTC,2443575.256250,29.1900,-87.6367,0095,0.67,1.09,1.2795,31.5782
1978-03-07 19:09:00 UTC,2443575.297917,29.1900,-87.6367,0095,0.81,1.16,1.4148,34.9257
1978-03-07 20:09:00 UTC,2443575.339583,29.1900,-87.6367,0095,1.07,0.97,1.4442,47.8064
1978-03-07 21:09:00 UTC,2443575.381250,29.1900,-87.6367,0095,1.16,0.69,1.3497,59.2546
1978-03-07 22:09:00 UTC,2443575.422917,29.1900,-87.6367,0095,0.90,0.58,1.0707,57.2005
1978-03-07 23:09:00 UTC,2443575.464583,29.1900,-87.6367,0095,0.89,0.56,1.0515,57.8213
1978-03-08 00:09:00 UTC,2443575.506250,29.1900,-87.6367,0095,0.87,0.54,1.0240,58.1726
1978-03-08 01:09:00 UTC,2443575.547917,29.1900,-87.6367,0095,0.59,0.56,0.8134,46.4943
1978-03-08 02:09:00 UTC,2443575.589583,29.1900,-87.6367,0095,0.41,0.66,0.7770,31.8491
1978-03-08 03:09:00 UTC,2443575.631250,29.1900,-87.6367,0095,0.15,0.78,0.7943,10.8855
1978-03-08 04:09:00 UTC,2443575.672917,29.1900,-87.6367,0095,-0.01,0.95,0.9501,359.3969
1978-03-08 05:09:00 UTC,2443575.714583,29.1900,-87.6367,0095,-0.01,1.11,1.1100,359.4838
1978-03-08 06:09:00 UTC,2443575.756250,29.1900,-87.6367,0095,0.06,1.18,1.1815,2.9108
1978-03-08 07:09:00 UTC,2443575.797917,29.1900,-87.6367,0095,0.11,1.27,1.2748,4.9503
1978-03-08 08:09:00 UTC,2443575.839583,29.1900,-87.6367,0095,0.09,1.39,1.3929,3.7046
1978-03-08 09:09:00 UTC,2443575.881250,29.1900,-87.6367,0095,0.10,1.65,1.6530,3.4682
1978-03-08 10:09:00 UTC,2443575.922917,29.1900,-87.6367,0095,0.09,1.62,1.6225,3.1798
1978-03-08 11:09:00 UTC,2443575.964583,29.1900,-87.6367,0095,0.07,1.66,1.6615,2.4147
1978-03-08 12:09:00 UTC,2443576.006250,29.1900,-87.6367,0095,0.22,1.91,1.9226,6.5706
1978-03-08 13:09:00 UTC,2443576.047917,29.1900,-87.6367,0095,0.22,1.94,1.9524,6.4698
1978-03-08 14:09:00 UTC,2443576.089583,29.1900,-87.6367,0095,0.05,2.02,2.0206,1.4179
1978-03-08 15:09:00 UTC,2443576.131250,29.1900,-87.6367,0095,0.07,2.15,2.1511,1.8648
1978-03-08 16:09:00 UTC,2443576.172917,29.1900,-87.6367,0095,0.16,2.29,2.2956,3.9967
1978-03-08 17:09:00 UTC,2443576.214583,29.1900,-87.6367,0095,0.36,2.29,2.3181,8.9341
1978-03-08 18:09:00 UTC,2443576.256250,29.1900,-87.6367,0095,0.44,2.09,2.1358,11.8887
1978-03-08 19:09:00 UTC,2443576.297917,29.1900,-87.6367,0095,0.35,2.02,2.0501,9.8299
1978-03-08 20:09:00 UTC,2443576.339583,29.1900,-87.6367,0095,0.40,2.11,2.1476,10.7344
1978-03-08 21:09:00 UTC,2443576.381250,29.1900,-87.6367,0095,0.37,2.07,2.1028,10.1343
1978-03-08 22:09:00 UTC,2443576.422917,29.1900,-87.6367,0095,0.40,1.99,2.0298,11.3653
1978-03-08 23:09:00 UTC,2443576.464583,29.1900,-87.6367,0095,0.53,1.97,2.0400,15.0581
1978-03-09 00:09:00 UTC,2443576.506250,29.1900,-87.6367,0095,0.44,1.78,1.8336,13.8847
1978-03-09 01:09:00 UTC,2443576.547917,29.1900,-87.6367,0095,0.57,1.57,1.6703,19.9538
1978-03-09 02:09:00 UTC,2443576.589583,29.1900,-87.6367,0095,0.47,1.55,1.6197,16.8687
1978-03-09 03:09:00 UTC,2443576.631250,29.1900,-87.6367,0095,0.08,1.43,1.4322,3.2020
1978-03-09 04:09:00 UTC,2443576.672917,29.1900,-87.6367,0095,0.02,1.41,1.4101,0.8127
1978-03-09 05:09:00 UTC,2443576.714583,29.1900,-87.6367,0095,0.03,1.40,1.4003,1.2276
1978-03-09 06:09:00 UTC,2443576.756250,29.1900,-87.6367,0095,-0.02,1.28,1.2802,359.1048
1978-03-09 07:09:00 UTC,2443576.797917,29.1900,-87.6367,0095,-0.05,1.34,1.3409,357.8631
1978-03-09 08:09:00 UTC,2443576.839583,29.1900,-87.6367,0095,-0.07,1.58,1.5815,357.4632
1978-03-09 09:09:00 UTC,2443576.881250,29.1900,-87.6367,0095,-0.04,1.85,1.8504,358.7614
1978-03-09 10:09:00 UTC,2443576.922917,29.1900,-87.6367,0095,-0.01,1.93,1.9300,359.7031
1978-03-09 11:09:00 UTC,2443576.964583,29.1900,-87.6367,0095,0.10,2.07,2.0724,2.7658
1978-03-09 12:09:00 UTC,2443577.006250,29.1900,-87.6367,0095,0.16,2.20,2.2058,4.1596
1978-03-09 13:09:00 UTC,2443577.047917,29.1900,-87.6367,0095,0.07,2.44,2.4410,1.6433
1978-03-09 14:09:00 UTC,2443577.089583,29.1900,-87.6367,0095,0.03,2.61,2.6102,0.6585
1978-03-09 15:09:00 UTC,2443577.131250,29.1900,-87.6367,0095,0.00,2.46,2.4600,0.0000
1978-03-09 16:09:00 UTC,2443577.172917,29.1900,-87.6367,0095,-0.02,2.42,2.4201,359.5265
1978-03-09 17:09:00 UTC,2443577.214583,29.1900,-87.6367,0095,-0.01,2.34,2.3400,359.7552
1978-03-09 18:09:00 UTC,2443577.256250,29.1900,-87.6367,0095,0.00,2.10,2.1000,0.0000
1978-03-09 19:09:00 UTC,2443577.297917,29.1900,-87.6367,0095,0.01,1.95,1.9500,0.2938
1978-03-09 20:09:00 UTC,2443577.339583,29.1900,-87.6367,0095,0.05,1.91,1.9107,1.4995
1978-03-09 21:09:00 UTC,2443577.381250,29.1900,-87.6367,0095,0.19,1.87,1.8796,5.8016
1978-03-09 22:09:00 UTC,2443577.422917,29.1900,-87.6367,0095,0.29,1.84,1.8627,8.9566
1978-03-09 23:09:00 UTC,2443577.464583,29.1900,-87.6367,0095,0.25,1.86,1.8767,7.6552
1978-03-10 00:09:00 UTC,2443577.506250,29.1900,-87.6367,0095,0.29,1.92,1.9418,8.5891
1978-03-10 01:09:00 UTC,2443577.547917,29.1900,-87.6367,0095,0.44,2.04,2.0869,12.1715
1978-03-10 02:09:00 UTC,2443577.589583,29.1900,-87.6367,0095,0.47,2.07,2.1227,12.7923
1978-03-10 03:09:00 UTC,2443577.631250,29.1900,-87.6367,0095,0.65,2.00,2.1030,18.0042
1978-03-10 04:09:00 UTC,2443577.672917,29.1900,-87.6367,0095,0.83,1.90,2.0734,23.5977
1978-03-10 05:09:00 UTC,2443577.714583,29.1900,-87.6367,0095,0.78,1.82,1.9801,23.1986
1978-03-10 06:09:00 UTC,2443577.756250,29.1900,-87.6367,0095,0.88,1.93,2.1212,24.5110
1978-03-10 07:09:00 UTC,2443577.797917,29.1900,-87.6367,0095,0.99,2.12,2.3398,25.0317
1978-03-10 08:09:00 UTC,2443577.839583,29.1900,-87.6367,0095,1.03,2.37,2.5841,23.4897
1978-03-10 09:09:00 UTC,2443577.881250,29.1900,-87.6367,0095,1.09,2.48,2.7090,23.7263